TimeHST,TemperatureF,Dew PointF,Humidity,Sea Level PressureIn,VisibilityMPH,Wind Direction,Wind SpeedMPH,Gust SpeedMPH,PrecipitationIn,Events,Conditions,WindDirDegrees,DateUTC
12:49 AM,75.2,66.2,73,30.01,10.0,SSE,5.8,-,N/A,,Overcast,160,2013-03-11 10:49:00
12:53 AM,75.0,66.0,73,30.02,10.0,SSE,5.8,-,N/A,,Overcast,160,2013-03-11 10:53:00
1:26 AM,73.4,64.4,73,30.00,10.0,SE,10.4,-,N/A,,Overcast,140,2013-03-11 11:26:00
1:53 AM,72.0,66.0,81,29.99,10.0,SE,3.5,-,0.00,Rain,Light Rain,130,2013-03-11 11:53:00
2:53 AM,71.1,64.9,81,29.97,10.0,NE,3.5,-,0.00,,Scattered Clouds,40,2013-03-11 12:53:00
3:53 AM,70.0,64.0,81,29.96,10.0,Calm,Calm,-,N/A,,Clear,0,2013-03-11 13:53:00
4:53 AM,69.1,62.1,78,29.96,10.0,ENE,4.6,-,N/A,,Clear,60,2013-03-11 14:53:00
5:46 AM,69.8,60.8,73,29.98,10.0,NE,6.9,-,N/A,,Mostly Cloudy,40,2013-03-11 15:46:00
5:53 AM,70.0,61.0,73,29.98,10.0,NNE,6.9,-,N/A,,Mostly Cloudy,30,2013-03-11 15:53:00
6:13 AM,69.8,60.8,73,29.99,10.0,NNE,9.2,-,N/A,,Scattered Clouds,30,2013-03-11 16:13:00
6:53 AM,69.1,61.0,75,30.01,10.0,NNE,4.6,-,N/A,,Clear,30,2013-03-11 16:53:00
7:53 AM,73.9,62.1,66,30.03,10.0,Calm,Calm,-,N/A,,Clear,0,2013-03-11 17:53:00
8:53 AM,78.1,62.1,58,30.04,10.0,WSW,3.5,-,N/A,,Clear,250,2013-03-11 18:53:00
9:53 AM,78.1,62.1,58,30.04,10.0,WNW,5.8,-,N/A,,Clear,290,2013-03-11 19:53:00
10:53 AM,80.1,64.0,58,30.04,10.0,West,6.9,-,N/A,,Clear,260,2013-03-11 20:53:00
11:53 AM,80.1,66.0,62,30.01,10.0,WSW,10.4,-,N/A,,Clear,250,2013-03-11 21:53:00
12:53 PM,81.0,66.0,60,30.00,10.0,WSW,10.4,-,N/A,,Clear,240,2013-03-11 22:53:00
1:53 PM,81.0,66.0,60,29.99,10.0,WSW,10.4,-,N/A,,Mostly Cloudy,250,2013-03-11 23:53:00
2:53 PM,81.0,66.0,60,29.97,10.0,West,10.4,-,N/A,,Mostly Cloudy,270,2013-03-12 00:53:00
3:53 PM,80.1,66.0,62,29.96,10.0,West,9.2,-,N/A,,Clear,280,2013-03-12 01:53:00
4:53 PM,80.1,66.0,62,29.96,10.0,WNW,9.2,-,N/A,,Mostly Cloudy,300,2013-03-12 02:53:00
5:53 PM,78.1,66.0,66,29.97,10.0,North,8.1,-,N/A,,Overcast,10,2013-03-12 03:53:00
6:29 PM,77.0,66.2,69,29.98,10.0,NNE,8.1,-,N/A,,Scattered Clouds,30,2013-03-12 04:29:00
6:53 PM,75.9,64.9,69,29.99,10.0,NE,9.2,-,N/A,,Mostly Cloudy,40,2013-03-12 04:53:00
7:41 PM,73.4,64.4,73,30.02,8.0,East,11.5,-,0.03,Rain,Heavy Rain,100,2013-03-12 05:41:00
7:48 PM,73.4,64.4,73,30.02,8.0,East,6.9,-,0.07,Rain,Heavy Rain,90,2013-03-12 05:48:00
7:53 PM,72.0,64.9,78,30.02,9.0,ENE,3.5,-,0.07,Rain,Rain,70,2013-03-12 05:53:00
8:53 PM,72.0,66.0,81,30.05,10.0,East,3.5,-,0.09,Rain,Light Rain,90,2013-03-12 06:53:00
9:53 PM,72.0,64.9,78,30.04,10.0,ESE,5.8,-,0.00,,Overcast,120,2013-03-12 07:53:00
10:53 PM,73.0,66.9,81,30.06,10.0,NW,4.6,-,N/A,,Mostly Cloudy,310,2013-03-12 08:53:00
11:53 PM,73.0,64.9,76,30.02,10.0,East,5.8,-,N/A,,Clear,100,2013-03-12 09:53:00